Location: Byszew
(52.1813°N, 19.2693°E)
Time: 22:15:43
(UTC+00:00)

Cosmos 2322 Rocket - Pass Details

Date: 25 June 2021
Orbit: 833 x 850 km, 71.0° (Epoch: 26 July)

Event Time Altitude Azimuth Distance (km) Brightness Sun altitude
Rises 21:17:46 0° 281° (W) 3,420 5.8 -12.0°
Reaches altitude 10° 21:21:25 10° 304° (NW) 2,486 5.5 -12.2°
Maximum altitude 21:24:36 15° 339° (NNW) 2,152 5.7 -12.4°
Drops below altitude 10° 21:27:47 10° 13° (NNE) 2,487 5.6 -12.6°
Sets 21:31:26 0° 36° (NE) 3,421 5.9 -12.7°
